Regional Weather Roundup
Issued by NWS

Home | Current Version | Previous Version | Text Only | Print | Product List | Glossary Off
Versions: 1 2 3 4 5 6 7 8 9 10 11 12 13 14 15 16 17 18 19 20 21 22 23 24 25 26 27 28 29 30 31 32 33 34 35 36 37 38 39 40 41 42 43 44 45 46 47 48 49 50

000
ASUS43 KDTX 200910
RWRMI
MICHIGAN HOURLY REGIONAL WEATHER ROUNDUP
NATIONAL WEATHER SERVICE DETROIT/PONTIAC MI
500 AM EDT MON OCT 20 2014

NOTE: "FAIR" INDICATES FEW OR NO CLOUDS BELOW 12,000 FEET WITH NO
SIGNIFICANT WEATHER AND/OR OBSTRUCTION TO VISIBILITY.

MIZ047>049-052>055-059>063-066>070-074>076-081>083-201000-
SOUTHEAST LOWER MICHIGAN

CITY           SKY/WX    TMP DP  RH WIND       PRES   REMARKS
ADRIAN         CLOUDY    48  41  76 SW10      29.91F
ALMA           CLOUDY    48  44  85 SW7       29.82F
ANN ARBOR      LGT RAIN  47  40  76 SW9       29.89F
BAD AXE        LGT RAIN N/A N/A N/A S9        29.83F
CARO           CLOUDY    46  44  91 S7        29.83F
DETROIT CITY   CLOUDY    51  39  63 SW9       29.91F
DETROIT        LGT RAIN  49  41  74 S9        29.92S
FLINT          CLOUDY    49  42  77 S9        29.86F
GROSSE ILE     CLOUDY    52  41  66 SW8       29.90F
HILLSDALE      CLOUDY    47  43  85 S5        29.89F
HOWELL         LGT RAIN  46  44  93 S8        29.86F

CITY           SKY/WX    TMP DP  RH WIND       PRES   REMARKS
JACKSON        CLOUDY    47  43  86 S8        29.87F
LAMBERTVILLE   CLOUDY    50  39  66 SW6       29.93S
LANSING        CLOUDY    48  43  82 S9        29.85F
LAPEER         LGT RAIN  46  43  90 S7        29.86F
MASON          CLOUDY    46  44  90 S3        29.86S
MONROE         CLOUDY    48  41  76 SW8       29.90F
MT. CLEMENS    LGT RAIN  48  41  76 SW10      29.87F
PONTIAC        LGT RAIN  45  41  86 S7        29.87F
PORT HOPE        N/A     46  43  89 VRB7      29.80F
PORT HURON     CLOUDY    48  39  71 SW6       29.89F
TRI CITIES     LGT RAIN  49  43  80 S12       29.83F
TROY           MIX PCPN  46  42  85 SW7       29.92S
SAGINAW HB     CLOUDY    46  45  93 S10       29.82F
$$
MIZ043>046-050>051-056>058-064>065-071>073-077>080-201000-
SOUTHWEST LOWER MICHIGAN

CITY           SKY/WX    TMP DP  RH WIND       PRES   REMARKS
BATTLE CREEK   CLOUDY    48  43  82 S13       29.86F
BENTON HARBOR  MOCLDY    48  44  86 S8        29.84F
BIG RAPIDS     MOCLDY    49  49 100 SW7       29.77F
COLDWATER      CLOUDY    49  44  84 SW9       29.88F
FREMONT        FAIR      47  46  95 SW7       29.78F
HOLLAND        MOCLDY    50  47  89 S8        29.82F
GRAND RAPIDS   CLOUDY    50  45  83 SW8       29.82F
IONIA          CLOUDY    49  46  86 SW10G20   29.82F
KALAMAZOO      CLOUDY    48  44  86 S12       29.85F
LUDINGTON      CLEAR     51  48  89 SW7       29.76F
MARSHALL       CLOUDY    47  43  87 S7        29.86F
MOUNT PLEASANT CLOUDY    48  44  86 S6        29.80S
MUSKEGON       MOCLDY    54  48  80 SW10      29.80F
SOUTH HAVEN    PTCLDY    50  46  86 SW6       29.83F
$$
MIZ016>042-201000-
NORTHERN LOWER MICHIGAN

CITY           SKY/WX    TMP DP  RH WIND       PRES   REMARKS
ALPENA         CLOUDY    46  42  86 SW6       29.77S
BEAVER ISLAND  CLOUDY    53  50  90 SW7       29.73S
BELLAIRE       CLOUDY    50  46  86 CALM      29.75F
CADILLAC       MOCLDY    47  46  98 SW5       29.76S
CHARLEVOIX     CLOUDY    51  48  90 CALM      29.76F
FRANKFORT      CLOUDY    53  46  78 S3        29.74F
GAYLORD        CLOUDY    47  44  90 SW5       29.75S
GRAYLING       CLOUDY    49  47  94 CALM      29.77S
HARBOR SPRINGS CLOUDY    50  46  84 S3        29.74F
HOUGHTON LAKE  CLOUDY    47  45  93 SW7       29.78S
MANISTEE       PTCLDY    46  43  87 CALM      29.76F
OSCODA         LGT RAIN  46  44  95 SW10      29.78F
PELLSTON       CLOUDY    50  46  86 CALM      29.73F
ROGERS CITY    CLOUDY    46  45  93 SW8       29.76S
TRAVERSE CITY  CLOUDY    52  46  80 VRB3      29.73F
$$
MIZ007>008-015-201000-
EASTERN UPPER MICHIGAN

CITY           SKY/WX    TMP DP  RH WIND       PRES   REMARKS
KINROSS        CLOUDY    45  45 100 SE5       29.72S
MACKINAC ISLAN CLOUDY    50  47  88 S7        29.72F
NEWBERRY       CLOUDY    46  45  97 W7        29.71S
S. S. MARIE    CLOUDY    45  43  93 E5        29.71F FOG
MUNISING         N/A     49  44  83 NW10G21   29.74R
$$
MIZ004>006-011>014-085-201000-
CENTRAL UPPER MICHIGAN

CITY           SKY/WX    TMP DP  RH WIND       PRES   REMARKS
MANISTIQUE     CLOUDY    48  46  91 W6        29.72S
ESCANABA       MOCLDY    46  43  87 NW5       29.73S
MENOMINEE      PTCLDY    46  43  87 CALM      29.73S
SAWYER-GWINN   CLOUDY    45  42  88 NW6       29.75R
$$
MIZ001>003-009>011-084-201000-
WESTERN UPPER MICHIGAN

CITY           SKY/WX    TMP DP  RH WIND       PRES   REMARKS
IRON MOUNTAIN  CLOUDY    40  39  97 CALM      29.74R FOG
HOUGHTON       CLOUDY    45  41  86 N7        29.77R
COPPER HARBOR    N/A     46  42  86 N13       29.76R
IRONWOOD       CLOUDY    46  43  87 NW7       29.80R
$$

ABBREVIATIONS USED IN REMARKS
   TC - TEMPERATURE IN CELSIUS
  WCI - WIND CHILL INDEX
   HX - HEAT INDEX
  VSB - VISIBILITY




USA.gov is the U.S. government's official web portal to all federal, state and local government web resources and services.